Time,TemperatureF,DewpointF,PressureIn,WindDirection,WindDirectionDegrees,WindSpeedMPH,WindSpeedGustMPH,Humidity,HourlyPrecipIn,Conditions,Clouds,dailyrainin,SoftwareType,DateUTC
2013-04-26 00:02:00,53.0,-99.9,30.15,NW,319,2.0,4.0,-999,-99.99,,,-99.99,,2013-04-26 07:02:00,
2013-04-26 00:12:00,52.0,-99.9,30.16,WNW,298,7.0,8.0,-999,-99.99,,,-99.99,,2013-04-26 07:12:00,
2013-04-26 00:22:00,52.0,-99.9,30.16,NW,312,5.0,9.0,-999,-99.99,,,-99.99,,2013-04-26 07:22:00,
2013-04-26 00:32:00,52.0,-99.9,30.16,SW,232,1.0,3.0,-999,-99.99,,,-99.99,,2013-04-26 07:32:00,
2013-04-26 00:42:00,52.0,-99.9,30.16,SSW,197,1.0,3.0,-999,-99.99,,,-99.99,,2013-04-26 07:42:00,
2013-04-26 00:52:00,51.0,-99.9,30.16,WNW,293,2.0,4.0,-999,-99.99,,,-99.99,,2013-04-26 07:52:00,
2013-04-26 01:03:00,51.0,-99.9,30.17,SW,235,2.0,3.0,-999,-99.99,,,-99.99,,2013-04-26 08:03:00,
2013-04-26 01:11:00,52.0,-99.9,30.18,West,260,4.0,6.0,-999,-99.99,,,-99.99,,2013-04-26 08:11:00,
2013-04-26 01:22:00,51.0,-99.9,30.18,WNW,294,7.0,8.0,-999,-99.99,,,-99.99,,2013-04-26 08:22:00,
2013-04-26 01:32:00,51.0,-99.9,30.19,WNW,296,7.0,10.0,-999,-99.99,,,-99.99,,2013-04-26 08:32:00,
2013-04-26 01:42:00,51.0,-99.9,30.19,WNW,291,9.0,10.0,-999,-99.99,,,-99.99,,2013-04-26 08:42:00,
2013-04-26 01:52:00,51.0,-99.9,30.19,WNW,293,8.0,10.0,-999,-99.99,,,-99.99,,2013-04-26 08:52:00,
2013-04-26 02:02:00,52.0,-99.9,30.19,WNW,298,5.0,8.0,-999,-99.99,,,-99.99,,2013-04-26 09:02:00,
2013-04-26 02:12:00,51.0,-99.9,30.19,NW,304,6.0,9.0,-999,-99.99,,,-99.99,,2013-04-26 09:12:00,
2013-04-26 02:22:00,51.0,-99.9,30.19,NW,318,6.0,7.0,-999,-99.99,,,-99.99,,2013-04-26 09:22:00,
2013-04-26 02:33:00,50.0,-99.9,30.19,NW,316,4.0,5.0,-999,-99.99,,,-99.99,,2013-04-26 09:33:00,
2013-04-26 02:43:00,50.0,-99.9,30.19,NW,317,6.0,7.0,-999,-99.99,,,-99.99,,2013-04-26 09:43:00,
2013-04-26 02:53:00,50.0,-99.9,30.20,WNW,299,7.0,8.0,-999,-99.99,,,-99.99,,2013-04-26 09:53:00,
2013-04-26 03:03:00,50.0,-99.9,30.20,NW,316,7.0,8.0,-999,-99.99,,,-99.99,,2013-04-26 10:03:00,
2013-04-26 03:12:00,50.0,-99.9,30.20,WNW,292,4.0,7.0,-999,-99.99,,,-99.99,,2013-04-26 10:12:00,
2013-04-26 03:23:00,50.0,-99.9,30.20,West,265,3.0,4.0,-999,-99.99,,,-99.99,,2013-04-26 10:23:00,
2013-04-26 03:33:00,50.0,-99.9,30.21,WSW,247,5.0,5.0,-999,-99.99,,,-99.99,,2013-04-26 10:33:00,
2013-04-26 03:42:00,49.0,-99.9,30.22,WNW,290,4.0,6.0,-999,-99.99,,,-99.99,,2013-04-26 10:42:00,
2013-04-26 03:52:00,49.0,-99.9,30.22,WNW,303,2.0,4.0,-999,-99.99,,,-99.99,,2013-04-26 10:52:00,
2013-04-26 04:02:00,49.0,-99.9,30.22,SSE,167,0.0,2.0,-999,-99.99,,,-99.99,,2013-04-26 11:02:00,
2013-04-26 04:12:00,50.0,-99.9,30.22,SSW,202,3.0,4.0,-999,-99.99,,,-99.99,,2013-04-26 11:12:00,
2013-04-26 04:22:00,49.0,-99.9,30.22,SSW,207,3.0,4.0,-999,-99.99,,,-99.99,,2013-04-26 11:22:00,
2013-04-26 04:32:00,49.0,-99.9,30.22,SW,222,3.0,3.0,-999,-99.99,,,-99.99,,2013-04-26 11:32:00,
2013-04-26 04:42:00,49.0,-99.9,30.22,SSW,192,2.0,3.0,-999,-99.99,,,-99.99,,2013-04-26 11:42:00,
2013-04-26 04:52:00,49.0,-99.9,30.22,SW,226,3.0,3.0,-999,-99.99,,,-99.99,,2013-04-26 11:52:00,
2013-04-26 05:02:00,49.0,-99.9,30.22,WSW,238,4.0,4.0,-999,-99.99,,,-99.99,,2013-04-26 12:02:00,
2013-04-26 05:12:00,48.0,-99.9,30.22,SW,221,3.0,4.0,-999,-99.99,,,-99.99,,2013-04-26 12:12:00,
2013-04-26 05:22:00,48.0,-99.9,30.22,SW,229,2.0,3.0,-999,-99.99,,,-99.99,,2013-04-26 12:22:00,
2013-04-26 05:32:00,48.0,-99.9,30.22,WSW,241,2.0,2.0,-999,-99.99,,,-99.99,,2013-04-26 12:32:00,
2013-04-26 05:42:00,48.0,-99.9,30.22,SW,215,3.0,4.0,-999,-99.99,,,-99.99,,2013-04-26 12:42:00,
2013-04-26 05:52:00,48.0,-99.9,30.22,SW,232,7.0,8.0,-999,-99.99,,,-99.99,,2013-04-26 12:52:00,
2013-04-26 06:01:00,48.0,-99.9,30.22,SSW,211,8.0,9.0,-999,-99.99,,,-99.99,,2013-04-26 13:01:00,
2013-04-26 06:12:00,48.0,-99.9,30.23,SSW,201,4.0,7.0,-999,-99.99,,,-99.99,,2013-04-26 13:12:00,
2013-04-26 06:22:00,48.0,-99.9,30.23,SSW,197,1.0,4.0,-999,-99.99,,,-99.99,,2013-04-26 13:22:00,
2013-04-26 06:32:00,48.0,-99.9,30.23,SSW,207,3.0,5.0,-999,-99.99,,,-99.99,,2013-04-26 13:32:00,
2013-04-26 06:42:00,48.0,-99.9,30.23,SSW,207,5.0,6.0,-999,-99.99,,,-99.99,,2013-04-26 13:42:00,
2013-04-26 06:52:00,48.0,-99.9,30.24,SW,230,5.0,6.0,-999,-99.99,,,-99.99,,2013-04-26 13:52:00,
2013-04-26 07:02:00,48.0,-99.9,30.24,SW,219,7.0,9.0,-999,-99.99,,,-99.99,,2013-04-26 14:02:00,
2013-04-26 07:11:00,48.0,-99.9,30.24,SSW,194,3.0,9.0,-999,-99.99,,,-99.99,,2013-04-26 14:11:00,
2013-04-26 07:22:00,48.0,-99.9,30.24,SSW,209,5.0,7.0,-999,-99.99,,,-99.99,,2013-04-26 14:22:00,
2013-04-26 07:32:00,48.0,-99.9,30.24,SSW,203,5.0,6.0,-999,-99.99,,,-99.99,,2013-04-26 14:32:00,
2013-04-26 07:42:00,48.0,-99.9,30.24,SW,215,3.0,6.0,-999,-99.99,,,-99.99,,2013-04-26 14:42:00,
2013-04-26 07:52:00,48.0,-99.9,30.24,SW,216,4.0,6.0,-999,-99.99,,,-99.99,,2013-04-26 14:52:00,
2013-04-26 08:02:00,49.0,-99.9,30.25,WSW,239,4.0,5.0,-999,-99.99,,,-99.99,,2013-04-26 15:02:00,
2013-04-26 08:12:00,49.0,-99.9,30.26,SW,215,6.0,8.0,-999,-99.99,,,-99.99,,2013-04-26 15:12:00,
2013-04-26 08:22:00,49.0,-99.9,30.26,SW,220,4.0,7.0,-999,-99.99,,,-99.99,,2013-04-26 15:22:00,
2013-04-26 08:33:00,49.0,-99.9,30.26,SSW,193,4.0,5.0,-999,-99.99,,,-99.99,,2013-04-26 15:33:00,
2013-04-26 08:43:00,49.0,-99.9,30.26,South,185,2.0,5.0,-999,-99.99,,,-99.99,,2013-04-26 15:43:00,
2013-04-26 08:53:00,49.0,-99.9,30.26,South,189,3.0,6.0,-999,-99.99,,,-99.99,,2013-04-26 15:53:00,
2013-04-26 09:03:00,49.0,-99.9,30.26,SW,218,5.0,6.0,-999,-99.99,,,-99.99,,2013-04-26 16:03:00,
2013-04-26 09:13:00,50.0,-99.9,30.26,South,171,2.0,7.0,-999,-99.99,,,-99.99,,2013-04-26 16:13:00,
2013-04-26 09:23:00,50.0,-99.9,30.26,SW,220,5.0,6.0,-999,-99.99,,,-99.99,,2013-04-26 16:23:00,
2013-04-26 09:33:00,51.0,-99.9,30.26,SSW,208,4.0,5.0,-999,-99.99,,,-99.99,,2013-04-26 16:33:00,
2013-04-26 09:42:00,51.0,-99.9,30.26,SW,214,5.0,6.0,-999,-99.99,,,-99.99,,2013-04-26 16:42:00,
2013-04-26 09:53:00,51.0,-99.9,30.27,WSW,239,4.0,6.0,-999,-99.99,,,-99.99,,2013-04-26 16:53:00,
2013-04-26 10:02:00,51.0,-99.9,30.27,SW,218,5.0,6.0,-999,-99.99,,,-99.99,,2013-04-26 17:02:00,
2013-04-26 10:12:00,51.0,-99.9,30.26,South,190,3.0,8.0,-999,-99.99,,,-99.99,,2013-04-26 17:12:00,
2013-04-26 10:22:00,51.0,-99.9,30.25,South,178,6.0,9.0,-999,-99.99,,,-99.99,,2013-04-26 17:22:00,
2013-04-26 10:32:00,51.0,-99.9,30.26,SW,214,8.0,9.0,-999,-99.99,,,-99.99,,2013-04-26 17:32:00,
2013-04-26 10:42:00,51.0,-99.9,30.26,SW,216,6.0,8.0,-999,-99.99,,,-99.99,,2013-04-26 17:42:00,
2013-04-26 10:52:00,52.0,-99.9,30.27,SW,222,4.0,7.0,-999,-99.99,,,-99.99,,2013-04-26 17:52:00,
2013-04-26 11:02:00,51.0,-99.9,30.27,SW,233,3.0,5.0,-999,-99.99,,,-99.99,,2013-04-26 18:02:00,
2013-04-26 11:12:00,53.0,-99.9,30.27,West,263,2.0,3.0,-999,-99.99,,,-99.99,,2013-04-26 18:12:00,
2013-04-26 11:22:00,53.0,-99.9,30.27,NW,312,5.0,6.0,-999,-99.99,,,-99.99,,2013-04-26 18:22:00,
2013-04-26 11:33:00,53.0,-99.9,30.27,NNW,330,1.0,4.0,-999,-99.99,,,-99.99,,2013-04-26 18:33:00,
2013-04-26 11:42:00,53.0,-99.9,30.27,NNW,337,2.0,4.0,-999,-99.99,,,-99.99,,2013-04-26 18:42:00,
2013-04-26 11:52:00,53.0,-99.9,30.27,NW,316,2.0,5.0,-999,-99.99,,,-99.99,,2013-04-26 18:52:00,
2013-04-26 12:02:00,52.0,-99.9,30.28,NW,323,7.0,9.0,-999,-99.99,,,-99.99,,2013-04-26 19:02:00,
2013-04-26 12:12:00,52.0,-99.9,30.27,NW,326,6.0,7.0,-999,-99.99,,,-99.99,,2013-04-26 19:12:00,
2013-04-26 12:22:00,52.0,-99.9,30.27,NW,319,5.0,6.0,-999,-99.99,,,-99.99,,2013-04-26 19:22:00,
2013-04-26 12:32:00,52.0,-99.9,30.27,NW,324,5.0,6.0,-999,-99.99,,,-99.99,,2013-04-26 19:32:00,
2013-04-26 12:42:00,53.0,-99.9,30.27,NNW,329,-999.0,3.0,-999,-99.99,,,-99.99,,2013-04-26 19:42:00,
2013-04-26 12:52:00,52.0,-99.9,30.27,NW,316,-999.0,1.0,-999,-99.99,,,-99.99,,2013-04-26 19:52:00,
2013-04-26 13:02:00,53.0,-99.9,30.27,NW,318,4.0,5.0,-999,-99.99,,,-99.99,,2013-04-26 20:02:00,
2013-04-26 13:11:00,53.0,-99.9,30.27,NW,316,5.0,6.0,-999,-99.99,,,-99.99,,2013-04-26 20:11:00,
2013-04-26 13:22:00,53.0,-99.9,30.27,NNW,343,2.0,6.0,-999,-99.99,,,-99.99,,2013-04-26 20:22:00,
2013-04-26 13:32:00,54.0,-99.9,30.27,NNW,332,2.0,4.0,-999,-99.99,,,-99.99,,2013-04-26 20:32:00,
2013-04-26 13:42:00,54.0,-99.9,30.27,NW,320,6.0,7.0,-999,-99.99,,,-99.99,,2013-04-26 20:42:00,
2013-04-26 13:52:00,54.0,-99.9,30.27,NW,325,5.0,7.0,-999,-99.99,,,-99.99,,2013-04-26 20:52:00,
2013-04-26 14:02:00,54.0,-99.9,30.27,NW,323,5.0,6.0,-999,-99.99,,,-99.99,,2013-04-26 21:02:00,
2013-04-26 14:11:00,54.0,-99.9,30.27,NW,326,5.0,6.0,-999,-99.99,,,-99.99,,2013-04-26 21:11:00,
2013-04-26 14:22:00,55.0,-99.9,30.27,NNW,339,3.0,5.0,-999,-99.99,,,-99.99,,2013-04-26 21:22:00,
2013-04-26 14:33:00,55.0,-99.9,30.27,NNW,340,2.0,4.0,-999,-99.99,,,-99.99,,2013-04-26 21:33:00,
2013-04-26 14:42:00,56.0,-99.9,30.27,NNW,328,5.0,6.0,-999,-99.99,,,-99.99,,2013-04-26 21:42:00,
2013-04-26 14:53:00,56.0,-99.9,30.27,NNW,328,6.0,6.0,-999,-99.99,,,-99.99,,2013-04-26 21:53:00,
2013-04-26 15:03:00,57.0,-99.9,30.27,NNW,327,5.0,6.0,-999,-99.99,,,-99.99,,2013-04-26 22:03:00,
2013-04-26 15:13:00,56.0,-99.9,30.27,NNW,342,1.0,3.0,-999,-99.99,,,-99.99,,2013-04-26 22:13:00,
2013-04-26 15:23:00,56.0,-99.9,30.27,NNW,338,1.0,3.0,-999,-99.99,,,-99.99,,2013-04-26 22:23:00,
2013-04-26 15:33:00,57.0,-99.9,30.26,NW,325,6.0,7.0,-999,-99.99,,,-99.99,,2013-04-26 22:33:00,
2013-04-26 15:42:00,57.0,-99.9,30.25,NNW,328,6.0,6.0,-999,-99.99,,,-99.99,,2013-04-26 22:42:00,
2013-04-26 15:52:00,58.0,-99.9,30.25,NW,325,5.0,6.0,-999,-99.99,,,-99.99,,2013-04-26 22:52:00,
2013-04-26 16:02:00,58.0,-99.9,30.24,NW,315,1.0,2.0,-999,-99.99,,,-99.99,,2013-04-26 23:02:00,
2013-04-26 16:12:00,58.0,-99.9,30.24,North,352,0.0,2.0,-999,-99.99,,,-99.99,,2013-04-26 23:12:00,
2013-04-26 16:22:00,58.0,-99.9,30.24,NW,315,4.0,5.0,-999,-99.99,,,-99.99,,2013-04-26 23:22:00,
2013-04-26 16:32:00,59.0,-99.9,30.23,NNW,327,3.0,4.0,-999,-99.99,,,-99.99,,2013-04-26 23:32:00,
2013-04-26 16:42:00,59.0,-99.9,30.23,NW,319,5.0,5.0,-999,-99.99,,,-99.99,,2013-04-26 23:42:00,
2013-04-26 16:52:00,60.0,-99.9,30.23,NW,315,1.0,5.0,-999,-99.99,,,-99.99,,2013-04-26 23:52:00,
2013-04-26 17:01:00,60.0,-99.9,30.23,NW,315,1.0,5.0,-999,-99.99,,,-99.99,,2013-04-27 00:01:00,
2013-04-26 17:12:00,58.0,-99.9,30.22,NW,320,4.0,7.0,-999,-99.99,,,-99.99,,2013-04-27 00:12:00,
2013-04-26 17:22:00,59.0,-99.9,30.22,NW,318,6.0,7.0,-999,-99.99,,,-99.99,,2013-04-27 00:22:00,
2013-04-26 17:32:00,60.0,-99.9,30.22,NW,314,6.0,8.0,-999,-99.99,,,-99.99,,2013-04-27 00:32:00,
2013-04-26 17:42:00,61.0,-99.9,30.21,NW,322,0.0,2.0,-999,-99.99,,,-99.99,,2013-04-27 00:42:00,
2013-04-26 17:52:00,62.0,-99.9,30.21,North,9,-999.0,1.0,-999,-99.99,,,-99.99,,2013-04-27 00:52:00,
2013-04-26 18:01:00,64.0,-99.9,30.20,NNW,344,-999.0,2.0,-999,-99.99,,,-99.99,,2013-04-27 01:01:00,
2013-04-26 18:12:00,64.0,-99.9,30.20,NNW,329,2.0,2.0,-999,-99.99,,,-99.99,,2013-04-27 01:12:00,
2013-04-26 18:21:00,63.0,-99.9,30.20,NW,314,3.0,3.0,-999,-99.99,,,-99.99,,2013-04-27 01:21:00,
2013-04-26 18:32:00,62.0,-99.9,30.20,NW,316,3.0,3.0,-999,-99.99,,,-99.99,,2013-04-27 01:32:00,
2013-04-26 18:42:00,62.0,-99.9,30.20,NW,317,2.0,4.0,-999,-99.99,,,-99.99,,2013-04-27 01:42:00,
2013-04-26 18:52:00,60.0,-99.9,30.20,NW,323,4.0,6.0,-999,-99.99,,,-99.99,,2013-04-27 01:52:00,
2013-04-26 19:02:00,58.0,-99.9,30.19,NW,313,6.0,6.0,-999,-99.99,,,-99.99,,2013-04-27 02:02:00,
2013-04-26 19:11:00,58.0,-99.9,30.19,NW,309,5.0,6.0,-999,-99.99,,,-99.99,,2013-04-27 02:11:00,
2013-04-26 19:22:00,58.0,-99.9,30.19,NW,308,5.0,6.0,-999,-99.99,,,-99.99,,2013-04-27 02:22:00,
2013-04-26 19:32:00,58.0,-99.9,30.19,NW,308,4.0,5.0,-999,-99.99,,,-99.99,,2013-04-27 02:32:00,
2013-04-26 19:42:00,58.0,-99.9,30.20,WNW,303,2.0,5.0,-999,-99.99,,,-99.99,,2013-04-27 02:42:00,
2013-04-26 19:52:00,57.0,-99.9,30.20,SSW,197,0.0,6.0,-999,-99.99,,,-99.99,,2013-04-27 02:52:00,
2013-04-26 20:02:00,62.0,-99.9,30.20,North,351,7.0,10.0,-999,-99.99,,,-99.99,,2013-04-27 03:02:00,
2013-04-26 20:11:00,62.0,-99.9,30.20,North,10,4.0,11.0,-999,-99.99,,,-99.99,,2013-04-27 03:11:00,
2013-04-26 20:22:00,62.0,-99.9,30.20,North,5,7.0,12.0,-999,-99.99,,,-99.99,,2013-04-27 03:22:00,
2013-04-26 20:33:00,62.0,-99.9,30.19,NE,37,0.0,3.0,-999,-99.99,,,-99.99,,2013-04-27 03:33:00,
2013-04-26 20:43:00,62.0,-99.9,30.19,NE,34,-999.0,3.0,-999,-99.99,,,-99.99,,2013-04-27 03:43:00,
2013-04-26 20:53:00,62.0,-99.9,30.19,SSE,167,-999.0,2.0,-999,-99.99,,,-99.99,,2013-04-27 03:53:00,
2013-04-26 21:03:00,62.0,-99.9,30.19,SE,146,-999.0,2.0,-999,-99.99,,,-99.99,,2013-04-27 04:03:00,
2013-04-26 21:13:00,61.0,-99.9,30.19,NW,313,1.0,2.0,-999,-99.99,,,-99.99,,2013-04-27 04:13:00,
2013-04-26 21:23:00,60.0,-99.9,30.20,WNW,291,1.0,7.0,-999,-99.99,,,-99.99,,2013-04-27 04:23:00,
2013-04-26 21:33:00,60.0,-99.9,30.20,NNW,336,5.0,6.0,-999,-99.99,,,-99.99,,2013-04-27 04:33:00,
2013-04-26 21:43:00,60.0,-99.9,30.21,NW,317,6.0,9.0,-999,-99.99,,,-99.99,,2013-04-27 04:43:00,
2013-04-26 21:53:00,60.0,-99.9,30.21,NW,316,4.0,7.0,-999,-99.99,,,-99.99,,2013-04-27 04:53:00,
2013-04-26 22:02:00,60.0,-99.9,30.21,NNW,338,2.0,6.0,-999,-99.99,,,-99.99,,2013-04-27 05:02:00,
2013-04-26 22:12:00,58.0,-99.9,30.22,WNW,295,7.0,9.0,-999,-99.99,,,-99.99,,2013-04-27 05:12:00,
2013-04-26 22:22:00,57.0,-99.9,30.22,WNW,298,6.0,9.0,-999,-99.99,,,-99.99,,2013-04-27 05:22:00,
2013-04-26 22:32:00,56.0,-99.9,30.22,WNW,294,6.0,9.0,-999,-99.99,,,-99.99,,2013-04-27 05:32:00,
2013-04-26 22:42:00,56.0,-99.9,30.22,South,186,1.0,6.0,-999,-99.99,,,-99.99,,2013-04-27 05:42:00,
2013-04-26 22:52:00,55.0,-99.9,30.22,SSW,193,2.0,2.0,-999,-99.99,,,-99.99,,2013-04-27 05:52:00,
2013-04-26 23:02:00,55.0,-99.9,30.22,SW,226,2.0,2.0,-999,-99.99,,,-99.99,,2013-04-27 06:02:00,
2013-04-26 23:12:00,55.0,-99.9,30.22,WSW,242,-999.0,1.0,-999,-99.99,,,-99.99,,2013-04-27 06:12:00,
2013-04-26 23:22:00,55.0,-99.9,30.22,ENE,60,-999.0,1.0,-999,-99.99,,,-99.99,,2013-04-27 06:22:00,
2013-04-26 23:32:00,55.0,-99.9,30.22,NW,308,2.0,2.0,-999,-99.99,,,-99.99,,2013-04-27 06:32:00,
2013-04-26 23:42:00,54.0,-99.9,30.22,NW,326,1.0,2.0,-999,-99.99,,,-99.99,,2013-04-27 06:42:00,
2013-04-26 23:52:00,54.0,-99.9,30.22,NW,321,3.0,4.0,-999,-99.99,,,-99.99,,2013-04-27 06:52:00,